JAL9674 ROIG-RJCW

Flight info

Callsign JAL9674
Flight time N/A
Altitude 33000
Route GAHRA3 MJC Y62 BOMAP A582 OLSER Y45 ENPAD A582 HKC Y45 MOCOS Y45 MARCO Y141 SAMON Z17 MRE V13 TIKYU Y13 SIRAO V13 CHE V1 RUMOI Y10 YOROI
Aircraft A21N/M-V/N

Departure

Time 2026-04-26 12:09
Airport New Ishigaki Airport (ROIG)

Arrival

Time N/A
Airport Wakkanai Airport (RJCW)
Time Latitude Longitude Altitude Speed Heading
2026-04-26 11:38 24.39131 124.24519 123 ft 0 kts 126°
2026-04-26 12:02 24.39141 124.24504 121 ft 2 kts 127°
2026-04-26 12:02 24.39151 124.24489 121 ft 2 kts 128°
2026-04-26 12:03 24.39162 124.24475 119 ft 2 kts 130°
2026-04-26 12:03 24.39172 124.24461 119 ft 2 kts 132°
2026-04-26 12:03 24.39180 124.24453 121 ft 2 kts 134°
2026-04-26 12:03 24.39196 124.24436 117 ft 2 kts 140°
2026-04-26 12:04 24.39204 124.24429 117 ft 2 kts 144°
2026-04-26 12:04 24.39218 124.24420 117 ft 2 kts 160°
2026-04-26 12:04 24.39235 124.24417 118 ft 2 kts 192°
2026-04-26 12:04 24.39245 124.24422 120 ft 1 kts 213°
2026-04-26 12:05 24.39246 124.24422 120 ft 0 kts 214°
2026-04-26 12:06 24.39241 124.24418 120 ft 5 kts 214°
2026-04-26 12:07 24.39192 124.24381 121 ft 10 kts 214°
2026-04-26 12:07 24.39129 124.24331 122 ft 12 kts 217°
2026-04-26 12:07 24.39056 124.24271 122 ft 14 kts 217°
2026-04-26 12:07 24.38971 124.24204 122 ft 16 kts 215°
2026-04-26 12:08 24.38876 124.24130 127 ft 17 kts 218°
2026-04-26 12:08 24.38867 124.24026 141 ft 11 kts 305°
2026-04-26 12:08 24.38907 124.23967 143 ft 7 kts 308°
2026-04-26 12:08 24.38957 124.23968 141 ft 8 kts 26°
2026-04-26 12:09 24.38969 124.23977 141 ft 2 kts 37°
2026-04-26 12:09 24.39230 124.24184 122 ft 91 kts 36°
2026-04-26 12:09 24.39960 124.24752 128 ft 158 kts 35°
2026-04-26 12:09 24.40857 124.25460 883 ft 157 kts 40°
2026-04-26 12:10 24.41503 124.26430 1696 ft 163 kts 68°
2026-04-26 12:10 24.41850 124.27628 2312 ft 170 kts 72°
2026-04-26 12:10 24.42316 124.28947 2542 ft 199 kts 66°
2026-04-26 12:10 24.42876 124.30413 2953 ft 218 kts 66°
2026-04-26 12:11 24.43481 124.32052 3225 ft 244 kts 66°
2026-04-26 12:11 24.44129 124.33840 3737 ft 258 kts 66°
2026-04-26 12:11 24.44799 124.35701 4382 ft 266 kts 66°
2026-04-26 12:11 24.45485 124.37605 5085 ft 271 kts 66°
2026-04-26 12:12 24.46184 124.39551 5788 ft 277 kts 65°
2026-04-26 12:12 24.46897 124.41536 6456 ft 283 kts 65°
2026-04-26 12:12 24.47622 124.43561 7101 ft 288 kts 66°
2026-04-26 12:12 24.48107 124.44921 7536 ft 291 kts 66°
2026-04-26 12:13 24.49096 124.47688 8424 ft 296 kts 66°
2026-04-26 12:13 24.49858 124.49806 9101 ft 300 kts 66°
2026-04-26 12:13 24.50631 124.51953 9758 ft 305 kts 66°
2026-04-26 12:13 24.51416 124.54132 10289 ft 313 kts 66°
2026-04-26 12:14 24.52238 124.56420 10588 ft 330 kts 66°
2026-04-26 12:14 24.53101 124.58824 10844 ft 347 kts 66°
2026-04-26 12:14 24.54005 124.61349 11097 ft 363 kts 66°
2026-04-26 12:14 24.54938 124.63959 11628 ft 369 kts 66°
2026-04-26 12:15 24.55877 124.66596 12245 ft 372 kts 66°
2026-04-26 12:15 24.56822 124.69249 12847 ft 375 kts 66°
2026-04-26 12:15 24.57778 124.71932 13458 ft 378 kts 66°
2026-04-26 12:15 24.58743 124.74639 14019 ft 381 kts 66°
2026-04-26 12:16 24.59715 124.77363 14527 ft 385 kts 66°
2026-04-26 12:16 24.60693 124.80110 15024 ft 388 kts 66°
2026-04-26 12:16 24.61679 124.82888 15515 ft 392 kts 66°
2026-04-26 12:16 24.62677 124.85693 16013 ft 396 kts 66°
2026-04-26 12:17 24.63685 124.88525 16491 ft 400 kts 66°
2026-04-26 12:17 24.64702 124.91385 16994 ft 403 kts 65°
2026-04-26 12:17 24.65728 124.94274 17477 ft 407 kts 65°
2026-04-26 12:17 24.66759 124.97184 17939 ft 411 kts 65°
2026-04-26 12:18 24.67801 125.00128 18393 ft 415 kts 65°
2026-04-26 12:18 24.68851 125.03101 18799 ft 418 kts 65°
2026-04-26 12:18 24.69908 125.06091 19222 ft 422 kts 65°
2026-04-26 12:18 24.70972 125.09105 19626 ft 426 kts 65°
2026-04-26 12:19 24.72013 125.12174 20038 ft 430 kts 66°
2026-04-26 12:19 24.73049 125.15271 20451 ft 433 kts 66°
2026-04-26 12:19 24.74088 125.18390 20871 ft 437 kts 66°
2026-04-26 12:19 24.75127 125.21512 21286 ft 440 kts 66°
2026-04-26 12:20 24.76200 125.24730 21725 ft 444 kts 66°
2026-04-26 12:20 24.77423 125.27799 22123 ft 444 kts 56°
2026-04-26 12:20 24.79213 125.30540 22534 ft 439 kts 42°
2026-04-26 12:20 24.81469 125.32774 22952 ft 437 kts 33°
2026-04-26 12:21 24.83863 125.34848 23362 ft 439 kts 32°
2026-04-26 12:21 24.86282 125.36925 23736 ft 443 kts 32°
2026-04-26 12:21 24.88708 125.39035 24090 ft 446 kts 33°
2026-04-26 12:21 24.91140 125.41173 24464 ft 448 kts 33°
2026-04-26 12:22 24.93580 125.43332 24829 ft 450 kts 33°
2026-04-26 12:22 24.96034 125.45504 25180 ft 453 kts 33°
2026-04-26 12:22 24.98502 125.47692 25524 ft 455 kts 33°
2026-04-26 12:22 25.00980 125.49890 25868 ft 457 kts 33°
2026-04-26 12:23 25.03470 125.52095 26202 ft 460 kts 33°
2026-04-26 12:23 25.05969 125.54309 26526 ft 462 kts 33°
2026-04-26 12:23 25.08479 125.56538 26847 ft 465 kts 33°
2026-04-26 12:23 25.11002 125.58781 27162 ft 467 kts 33°
2026-04-26 12:24 25.13499 125.60999 27473 ft 469 kts 33°
2026-04-26 12:24 25.16046 125.63268 27770 ft 471 kts 33°
2026-04-26 12:24 25.18601 125.65553 28061 ft 473 kts 33°
2026-04-26 12:25 25.23740 125.70147 28616 ft 478 kts 33°
2026-04-26 12:25 25.26337 125.72462 28892 ft 480 kts 33°
2026-04-26 12:25 25.28939 125.74786 29167 ft 482 kts 33°
2026-04-26 12:25 25.31559 125.77123 29441 ft 484 kts 33°
2026-04-26 12:26 25.34192 125.79466 29716 ft 486 kts 33°
2026-04-26 12:26 25.36831 125.81821 29954 ft 489 kts 33°
2026-04-26 12:26 25.39480 125.84190 30206 ft 490 kts 33°
2026-04-26 12:26 25.42132 125.86562 30517 ft 489 kts 33°
2026-04-26 12:27 25.44782 125.88929 30827 ft 488 kts 33°
2026-04-26 12:27 25.47421 125.91282 31130 ft 487 kts 33°
2026-04-26 12:27 25.50064 125.93640 31448 ft 486 kts 33°
2026-04-26 12:27 25.52687 125.95981 31731 ft 485 kts 32°
2026-04-26 12:28 25.55312 125.98323 32015 ft 483 kts 32°
2026-04-26 12:28 25.57928 126.00660 32316 ft 483 kts 32°
2026-04-26 12:28 25.60504 126.02964 32581 ft 482 kts 32°
2026-04-26 12:28 25.63143 126.05330 32852 ft 481 kts 32°
2026-04-26 12:29 25.65710 126.07630 33042 ft 480 kts 32°
2026-04-26 12:29 25.68304 126.09954 33071 ft 479 kts 32°
2026-04-26 12:30 25.76081 126.16923 33041 ft 480 kts 32°
2026-04-26 12:30 25.81308 126.21525 33036 ft 480 kts 32°
2026-04-26 12:31 25.89066 126.28586 33034 ft 481 kts 33°
2026-04-26 12:31 25.94259 126.33277 33035 ft 481 kts 33°
2026-04-26 12:32 25.99454 126.37973 33038 ft 482 kts 33°
2026-04-26 12:33 26.07226 126.45078 33049 ft 482 kts 33°
2026-04-26 12:33 26.12396 126.49823 33046 ft 482 kts 33°
2026-04-26 12:34 26.17590 126.54552 33040 ft 482 kts 33°
2026-04-26 12:34 26.22809 126.59235 33039 ft 482 kts 33°
2026-04-26 12:35 26.28023 126.63942 33041 ft 483 kts 33°
2026-04-26 12:35 26.33243 126.68661 33036 ft 483 kts 33°